РПИ Туркменбаши

Руководство

Evgeny Vygornitsky*

Куратор
Инструкторы РПИ
Evgeny Vygornitsky (Supervisor)
Входит в состав
Центральная Азия

Диспетчеры РПИ

Диспетчер Рейтинг Допуски *

Аэропорты РПИ

ICAO Город Название Погода
UTAK Туркменбаши Туркменбаши UTAK 190700Z 34016KT CAVOK 34/15 Q1013 R34L/CLRD70 NOSIG